TimeCDT,TemperatureF,Dew PointF,Humidity,Sea Level PressureIn,VisibilityMPH,Wind Direction,Wind SpeedMPH,Gust SpeedMPH,PrecipitationIn,Events,Conditions,WindDirDegrees,DateUTC
12:53 AM,80.1,75.9,87,30.00,10.0,SW,4.6,-,N/A,,Clear,220,2012-08-16 05:53:00
1:53 AM,81.0,75.9,85,29.99,10.0,SSW,5.8,-,N/A,,Clear,210,2012-08-16 06:53:00
2:53 AM,81.0,75.9,85,29.99,10.0,South,3.5,-,N/A,,Clear,190,2012-08-16 07:53:00
3:53 AM,80.1,75.0,85,29.99,10.0,Calm,Calm,-,N/A,,Clear,0,2012-08-16 08:53:00
4:53 AM,80.1,75.0,85,30.00,10.0,SW,3.5,-,N/A,,Clear,230,2012-08-16 09:53:00
5:53 AM,80.1,75.0,85,30.00,10.0,SSW,3.5,-,N/A,,Clear,200,2012-08-16 10:53:00
6:53 AM,80.1,77.0,90,30.01,10.0,Calm,Calm,-,N/A,,Clear,0,2012-08-16 11:53:00
7:53 AM,82.0,77.0,85,30.03,10.0,Calm,Calm,-,N/A,,Clear,0,2012-08-16 12:53:00
8:53 AM,82.9,77.0,82,30.04,10.0,Calm,Calm,-,N/A,,Clear,0,2012-08-16 13:53:00
9:53 AM,86.0,78.1,77,30.05,10.0,Calm,Calm,-,N/A,,Clear,0,2012-08-16 14:53:00
10:53 AM,89.1,73.9,61,30.06,10.0,SSW,5.8,-,N/A,,Partly Cloudy,210,2012-08-16 15:53:00
11:05 AM,89.6,73.4,59,30.05,10.0,SW,3.5,-,N/A,,Mostly Cloudy,230,2012-08-16 16:05:00
11:53 AM,91.0,73.0,55,30.05,10.0,Calm,Calm,-,N/A,,Mostly Cloudy,0,2012-08-16 16:53:00
12:00 PM,91.4,73.4,55,30.05,10.0,WSW,5.8,-,N/A,,Mostly Cloudy,250,2012-08-16 17:00:00
12:07 PM,91.4,71.6,52,30.05,10.0,West,3.5,-,N/A,,Mostly Cloudy,260,2012-08-16 17:07:00
12:53 PM,91.9,72.0,52,30.03,10.0,Calm,Calm,-,N/A,,Partly Cloudy,0,2012-08-16 17:53:00
1:10 PM,93.2,73.4,52,30.03,10.0,Variable,3.5,-,N/A,,Mostly Cloudy,0,2012-08-16 18:10:00
1:53 PM,91.0,73.9,57,30.01,10.0,South,10.4,-,N/A,,Mostly Cloudy,190,2012-08-16 18:53:00
2:00 PM,89.6,73.4,59,30.02,10.0,South,10.4,-,N/A,,Scattered Clouds,180,2012-08-16 19:00:00
2:53 PM,91.0,70.0,50,30.01,10.0,South,9.2,-,N/A,,Clear,190,2012-08-16 19:53:00
3:53 PM,89.1,75.9,65,29.99,10.0,South,10.4,-,N/A,,Partly Cloudy,180,2012-08-16 20:53:00
4:53 PM,88.0,75.9,67,29.98,10.0,SSE,5.8,-,N/A,,Clear,160,2012-08-16 21:53:00
5:53 PM,87.1,75.0,67,29.97,10.0,SSW,6.9,-,N/A,,Mostly Cloudy,210,2012-08-16 22:53:00
6:53 PM,82.9,72.0,69,29.96,10.0,WNW,4.6,-,N/A,,Scattered Clouds,300,2012-08-16 23:53:00
7:53 PM,82.0,73.9,76,29.97,10.0,Calm,Calm,-,0.00,,Clear,0,2012-08-17 00:53:00
8:53 PM,80.1,75.0,85,29.98,10.0,Calm,Calm,-,N/A,,Clear,0,2012-08-17 01:53:00
9:53 PM,80.1,75.0,85,30.01,10.0,Calm,Calm,-,N/A,,Clear,0,2012-08-17 02:53:00
10:53 PM,82.0,75.9,82,30.02,10.0,South,4.6,-,N/A,,Clear,170,2012-08-17 03:53:00
11:53 PM,81.0,77.0,88,30.02,10.0,Calm,Calm,-,N/A,,Clear,0,2012-08-17 04:53:00